Regional Weather Roundup
Issued by NWS

Home | Current Version | Previous Version | Text Only | Print | Product List | Glossary On
Versions: 1 2 3 4 5 6 7 8 9 10 11 12 13 14 15 16 17 18 19 20 21 22 23 24 25 26 27 28 29 30 31 32 33 34 35 36 37 38 39 40 41 42 43 44 45 46 47 48 49 50
000
ASUS44 KBMX 050310
RWRAL

ALABAMA REGIONAL WEATHER ROUNDUP
NATIONAL WEATHER SERVICE BIRMINGHAM AL
1000 PM CDT FRI SEP 04 2015

NOTE: "FAIR" INDICATES FEW OR NO CLOUDS BELOW 12,000 FEET
WITH NO SIGNIFICANT WEATHER AND/OR OBSTRUCTIONS TO VISIBILITY.

THE REMARK "TC" DENOTES TEMPERATURE IN DEGREES CELSIUS.

ALZ001>011-014-016>018-020-050400-
NORTH ALABAMA

CITY           SKY/WX    TMP DP  RH WIND       PRES   REMARKS
MUSCLE SHOALS  PTCLDY    75  69  81 CALM      30.04R
HUNTSVILLE     PTCLDY    77  72  84 CALM      30.03R
DECATUR        PTCLDY    74  72  93 N3        30.04R
HALEYVILLE     FAIR      76  76 100 CALM      30.07R
GADSDEN        MOCLDY    75  70  83 CALM      30.02R
$$

ALZ012-013-022-023-030>036-040>044-050400-
WEST CENTRAL ALABAMA

CITY           SKY/WX    TMP DP  RH WIND       PRES   REMARKS
TUSCALOOSA     PTCLDY    79  74  84 CALM      30.00R
$$

ALZ015-024>027-033>036-040>044-050400-
CENTRAL ALABAMA

CITY           SKY/WX    TMP DP  RH WIND       PRES   REMARKS
BIRMINGHAM     CLOUDY    79  74  84 CALM      30.05R
MONTGOMERY     CLEAR     78  73  84 S7        29.99R
SHELBY CO ARPT MOCLDY    78  75  90 CALM      30.02R
MAXWELL AFB    CLEAR     79  77  94 CALM      29.98R
GREENVILLE     FAIR      78  71  79 CALM      29.99R
$$

ALZ019-021-028-029-037-038-045>048-050400-
EAST CENTRAL ALABAMA

CITY           SKY/WX    TMP DP  RH WIND       PRES   REMARKS
ANNISTON       MOCLDY    76  71  85 CALM      30.02R
ALEXANDER CITY PTCLDY    78  76  92 CALM      30.02S
AUBURN         CLEAR     79  72  79 CALM      30.03R
$$

ALZ051>064-050400-
SOUTHWEST ALABAMA

CITY           SKY/WX    TMP DP  RH WIND       PRES   REMARKS
MOBILE         PTCLDY    79  75  87 SW3       30.00R
BROOKLEY FIELD CLEAR     80  75  84 W3        29.99R
EVERGREEN      CLEAR     77  77 100 CALM      30.00R FOG
$$

ALZ049-050-065>069-050400-
SOUTHEAST ALABAMA

CITY           SKY/WX    TMP DP  RH WIND       PRES   REMARKS
DOTHAN         PTCLDY    78  73  84 CALM      30.03R
OZARK          MOCLDY    78  73  86 W3        29.99R
TROY           CLEAR     76  73  91 CALM      30.00R
EUFAULA        FAIR      76  74  93 CALM      29.98R
$$


USA.gov is the U.S. government's official web portal to all federal, state and local government web resources and services.